www.pogodaiklimat.ru

Погода и климат >> Архив погоды >> Мексика >> Пьедрас-Неграс


ПОГОДА в Пьедрас-Неграс

  • Прогноз погоды в Пьедрас-Неграс
  • Монитор погоды в Пьедрас-Неграс

АРХИВ ПОГОДЫ в Пьедрас-Неграс

Время (UTC), дата Ветер
(напр.,м/с)
 
Видим.   Явления Облачность Т
(С)
Тd
(С)
f
(%)
Тe
(С)
Тes
(С)
Комфортность P
(гПа)
Po
(гПа)
Тmin
(С)
Tmax
(С)
R
(мм)
R24
(мм)
S
(см)
12 9.07 В 1 3000 м ясно +27.2 +21.9 73 +35 +35 очень
душно
1011.8 984.0 +26.0 +41.4
15 9.07 н/о +22.7 1013.8 985.7
18 9.07 В 2 5000 м 5/5 480 м
[Cu med, cong]
+36.4 +22.9 46 +46 +57 опасность
перегрева
1013.5 985.5 +26.0 +37.6
21 9.07 В 1 5000 м 8/0
[Cs]
+40.2 +18.1 28 +44 +59 опасность
перегрева
1011.3 983.7
00 10.07 Ю 1 5000 м 8/0
[Cs]
+40.6 +16.3 24 +42 +45 опасность
перегрева
1009.5 982.2 +26.0 +42.0
03 10.07 ЮВ 1 1000 м 5/5 480 м
[Sc diur, vesp]
+37.8 +16.6 29 +40 +40 очень
душно
1008.3 981.2
06 10.07 ЮВ 1 1000 м 3/3 480 м
[Sc diur, vesp]
+32.0 +19.2 47 +38 +38 очень
душно
1010.7 983.5 +42.0
09 10.07 Ю 1 1000 м ясно +30.0 +21.0 59 +38 +38 очень
душно
1013.9 986.5
12 10.07 ЮВ 2 5000 м ясно +27.8 +21.1 67 +35 +35 очень
душно
1015.7 987.9 +26.6 +42.0
15 10.07 ЮВ 2 5000 м ясно +30.4 +23.6 67 +41 +50 опасность
перегрева
1016.1 988.1
18 10.07 В 2 5000 м ясно +35.8 +25.2 54 +49 +71 опасность
перегрева
1016.2 988.2 +26.6 +36.8
21 10.07 В 1 5000 м 4/0
[Cs]
+40.6 +18.6 28 +44 +62 опасность
перегрева
1012.7 985.1
00 11.07 В 1 5000 м 6/6 500 м
[Cu med, cong]
+40.4 +16.8 25 +42 +44 опасность
перегрева
1010.7 983.4 +26.6 +41.8
03 11.07 ЮВ 1 1000 м 3/3 480 м
[Sc diur, vesp]
+36.8 +17.9 33 +40 +40 очень
душно
1011.0 983.9
06 11.07 В 1 1000 м ясно +32.8 +19.1 44 +38 +38 очень
душно
1011.3 984.1 +41.8
09 11.07 В 2 1000 м 3/3 480 м
[Sc diur, vesp]
+29.2 +19.5 56 +35 +35 очень
душно
1013.3 985.8
12 11.07 В 1 1000 м ясно +27.4 +20.0 64 +34 +34 очень
душно
1013.1 985.4 +26.8 +41.8
15 11.07 ЮВ 2 5000 м 5/5 540 м
[Sc diur, vesp]
+27.4 +20.0 64 +34 +38 очень
душно
1016.2 988.2
18 11.07 СВ 3 5000 м 5/5 540 м
[Sc diur, vesp]
+35.6 +21.6 44 +43 +52 опасность
перегрева
1014.7 986.7 +26.8 +36.8
21 11.07 СВ 1 5000 м 6/6 540 м
[Sc diur, vesp]
+38.4 +17.8 30 +42 +49 опасность
перегрева
1011.6 983.8
00 12.07 С 1 5000 м 8/8 540 м
[Sc diur, vesp]
+36.6 +17.6 33 +40 +41 очень
душно
1010.6 983.1 +26.8 +39.6
03 12.07 ЮВ 2 1000 м 4/4 300 м
[Frnb]
+25.4 +21.8 80 +33 +33 очень
душно
1011.2 983.7 4
06 12.07 ЮВ 2 1000 м ясно +25.0 +21.0 78 +31 +31 очень
душно
1011.2 983.5 +39.6 3
12 12.07 СЗ 2 5000 м ясно +24.8 +22.0 84 +32 +32 очень
душно
1012.4 984.1 +23.6 +39.6
15 12.07 СВ 2 5000 м 4/0 1500 м
[Ac trans]
+29.4 +19.4 55 +35 +42 очень
душно
1013.8 985.4
18 12.07 СВ 2 5000 м 4/4 540 м
[Cu med, cong]
+36.6 +19.4 37 +42 +55 опасность
перегрева
1012.0 983.9 +24.8 +38.2
21 12.07 С 1 5000 м 6/6 540 м
[Cu med, cong]
+38.2 +18.0 31 +42 +49 опасность
перегрева
1009.2 981.5
00 13.07 С 1 4000 м 9/9 360 м
[St]
+35.6 +18.9 38 +40 +41 очень
душно
1007.8 980.4 +24.8 +40.4
03 13.07 ЮВ 1 1000 м ясно +33.0 +20.1 47 +39 +39 очень
душно
1007.7 980.5
06 13.07 ЮВ 1 1000 м ясно +30.6 +20.2 54 +37 +37 очень
душно
1009.1 981.8 +24.8 +40.4
12 13.07 В 1 1000 м 8/8 480 м
[Sc diur, vesp]
+27.2 +21.3 70 +34 +34 очень
душно
1009.7 982.0 +26.6 +40.4
15 13.07 В 2 5000 м 4/4 480 м
[Sc diur, vesp]
+30.4 +19.3 52 +36 +42 очень
душно
1011.3 983.4
18 13.07 ЮВ 2 5000 м 4/4 480 м
[Sc diur, vesp]
+35.4 +20.0 41 +41 +54 опасность
перегрева
1010.6 982.7 +26.6 +36.2
21 13.07 ЮВ 1 4000 м 4/4 480 м
[Sc diur, vesp]
+38.2 +19.1 33 +43 +54 опасность
перегрева
1010.3 982.6
00 14.07 ЮВ 1 5000 м 3/3 480 м
[Sc diur, vesp]
+38.0 +16.5 28 +40 +42 очень
душно
1009.6 982.2 +26.6 +40.2
03 14.07 С 2 1000 м ясно +32.6 +16.8 39 +36 +36 очень
душно
1009.8 982.5
06 14.07 С 2 1000 м ясно +30.2 +14.3 38 +32 +32 жарко 1011.2 983.8 +40.2
12 14.07 ЮВ 1 3000 м ясно +24.8 +16.4 60 +28 +28 жарко 1014.5 986.6 +24.0 +40.2
15 14.07 В 1 5000 м ясно +29.6 +15.8 43 +32 +43 душно 1014.5 986.3
18 14.07 ЮВ 1 5000 м 4/4 500 м
[Cu hum]
+38.2 +17.5 30 +41 +56 опасность
перегрева
1013.3 985.3 +24.0 +39.0
21 14.07 Ю 2 5000 м 5/5 540 м
[Cu med, cong]
+39.0 +17.1 28 +42 +50 опасность
перегрева
1011.5 983.8
00 15.07 З 2 5000 м 4/4 540 м
[Cu med, cong]
+39.6 +16.4 26 +42 +43 опасность
перегрева
1011.0 983.6 +26.6 +40.6
03 15.07 СЗ 1 1000 м ясно +34.4 +18.4 39 +39 +39 очень
душно
1010.4 983.2
06 15.07 З 1 1000 м ясно +31.4 +17.7 44 +36 +36 очень
душно
1011.4 984.2 +40.6
12 15.07 В 2 3000 м 4/4 400 м
[Sc diur, vesp]
+28.8 +21.6 65 +37 +37 очень
душно
1013.0 985.2 +27.6 +40.6
15 15.07 В 2 5000 м 5/5 420 м
[Sc diur, vesp]
+30.2 +23.4 67 +41 +45 опасность
перегрева
1014.4 986.4
18 15.07 В 2 5000 м 5/5 540 м
[Sc diur, vesp]
+33.6 +22.7 53 +43 +54 опасность
перегрева
1013.0 985.1 +27.6 +36.2
21 15.07 СВ 1 5000 м 8/8 500 м
[Sc diur, vesp]
+38.6 +19.2 32 +43 +47 опасность
перегрева
1010.7 983.0
00 16.07 Ю 1 5000 м 8/8 330 м
[Sc diur, vesp]
+34.0 +21.3 48 +42 +42 опасность
перегрева
1009.9 982.4 +27.6 +39.8
03 16.07 ЮВ 1 1000 м 4/4 480 м
[Sc diur, vesp]
+31.8 +21.2 53 +39 +39 очень
душно
1009.9 982.5
06 16.07 ЮВ 1 1000 м ясно +30.2 +21.6 60 +38 +38 очень
душно
1011.6 984.1 +39.8
09 16.07 ЮВ 1 1000 м ясно +28.0 +21.3 67 +35 +35 очень
душно
1011.4 983.7

 

Местоположение метеостанции Пьедрас-Неграс (Мексика): широта 28.70 долгота -100.50 высота над уровнем моря 250 м.

В архиве по умолчанию представлена погода в Пьедрас-Неграс за последнюю неделю. Архивные данные за месяц целиком и за предыдущие месяцы, начиная с января 2011 года, Вы можете получить, выбрав интересующий диапазон дат из раскрывающегося списка и нажав кнопку "Ввод!".


*Определитесь, кто Вы:
робот инопланетянин человек

Внимание! Время в таблицах - всемирное. Для получения местного времени необходимо прибавить поправку, которая равна -7 ч.

Смотрите также архив погоды в соседних городах и на ближайших метеорологических станциях:

Погода в Монклове (Мексика) (221 км)
Погода в Монтеррее (Мексика) (331 км)
Погода в Солтильо (Мексика) (374 км)
Погода в Торреоне (Мексика) (455 км)
Погода в Чихуахуа университете (Мексика) (537 км)
Погода в Паррале (Мексика) (539 км)
Погода в Чихуахуа (Мексика) (544 км)
Погода в Сьюдад-Виктории (Мексика) (569 км)
Погода в Сото ла Марина (Мексика) (594 км)
Погода в Тепеуанесе (Мексика) (638 км)

Пояснения к столбцам:

Ветер - указаны скорость ветра в м/с - средняя за 10 мин, порывы в срок и между сроками (в фигурных скобках) и направление, откуда дует ветер: С - северный, СВ - северо-восточный, В - восточный, ЮВ - юго-восточный, Ю - южный, ЮЗ - юго-западный, З - западный, СЗ - северо-западный.
Видимость - горизонтальная дальность видимости в метрах или километрах. При видимости от 1 до 10 км при отсутствии осадков обычно наблюдается дымка, при ухудшении видимости до 1 км и менее - туман. В сухую погоду видимость может ухудшаться дымом, пылью или мглою.
Явления - указаны атмосферные явления, наблюдавшиеся в срок или в последний час перед сроком; фигурными скобками обозначены явления, наблюдавшиеся между сроками (за 1-3 часа до срока); квадратными скобками обозначены град или гололедные отложения с указанием их диаметра в мм.
Облачность - указаны через наклонную черту общая и нижняя облачность в баллах и высота нижней границы облаков в метрах; квадратными скобками обозначены формы облаков: Ci - перистые, Cs - перисто-слоистые, Cc - перисто-кучевые, Ac - высококучевые, As - высокослоистые, Sc - слоисто-кучевые, Ns - слоисто-дождевые, Cu - кучевые, Cb - кучево-дождевые. Подробнее классификацию облаков см. в Атласе облаков (PDF).
T - Температура воздуха - температура, измеренная на высоте 2 м над землей.
Td - Температура точки росы - температура, при понижении до которой содержащийся в воздухе водяной пар достигнет насыщения.
f - Относительная влажность воздуха - влажноcть воздуха, измеренная на высоте 2 м над землей.
Te - Эффективная температура - температура, которую ощущает одетый по сезону человек в тени. Характеристика душности погоды. При расчете учитывается влияние влажности воздуха и скорости ветра на теплоощущения человека.
Tes - Эффективная температура на солнце - температура, которую ощущает человек, с поправкой на солнечный нагрев. Характеристика знойности погоды. Зависит от высоты солнца над горизонтом, облачности и скорости ветра. Ночью, в пасмурную погоду, а также при ветре 12 м/с и более поправка равна нулю.
P - Атмосферное давление - приведенное к уровню моря атмосферное давление.
Po - Атмосферное давление - измеренное на уровне метеостанции атмосферное давление.
Tmin - Минимальная температура - минимум температуры воздуха на высоте 2 м над землей.
Tmax - Максимальная температура - максимум температуры воздуха на высоте 2 м над землей.
R - Количество осадков - Количество выпавших осадков за период времени, мм. При наведении курсора мыши на число - период времени, за который выпало указанное количество осадков.
R24 - Количество осадков - Количество выпавших осадков за 24 часа, мм.
S - Снежный покров - Высота снежного покрова, см. При наведении курсора мыши на число - состояние снежного покрова и степень покрытия местности в баллах.